Location: Balmoral
(33.0667°S, 151.5833°E)
Time: 00:40:18
(UTC+00:00)

NOSS 3-1 (C) - Pass Details

Date: 18 September 2020
Orbit: 743 x 1466 km, 63.4° (Epoch: 09 October)

Event Time Altitude Azimuth Distance (km) Brightness Sun altitude
Exits shadow 18:32:21 - 321° (NW) 3,634 6.0 -16.5°
Reaches altitude 10° 18:32:32 10° 320° (NW) 3,577 6.0 -16.5°
Maximum altitude 18:41:26 68° 238° (WSW) 1,484 4.2 -14.6°
Drops below altitude 10° 18:49:29 10° 155° (SSE) 3,248 6.7 -12.9°
Sets 18:52:09 0° 152° (SSE) 4,124 7.3 -12.4°
